Weather History for Wallops Island, VA

Change the Weather History Date:

Monday, August 26, 2013

  Actual Average Record
Temperature  
Mean Temperature 71 °F 74 °F  
Max Temperature 85 °F 82 °F 92 °F (2006)
Min Temperature 57 °F 67 °F 56 °F (1977)
Degree Days  
Heating Degree Days 0    
Month to date heating degree days 0  
Since 1 June heating degree days 0  
Since 1 July heating degree days 0  
Cooling Degree Days 6    
Month to date cooling degree days 278  
Year to date cooling degree days 1187  
Since 1 June cooling degree days 1056  
Growing Degree Days 20 (Base 50)    
Moisture  
Dew Point 56 °F    
Average Humidity 59    
Maximum Humidity 80    
Minimum Humidity 37    
Precipitation  
Precipitation 0.00 in 0.13 in 0.58 in (1998)
Month to date precipitation 1.28 3.62  
Year to date precipitation 28.90 26.82  
Sea Level Pressure  
Sea Level Pressure 30.19 in    
Wind  
Wind Speed 7 mph (West)    
Max Wind Speed 14 mph    
Max Gust Speed 20 mph    
Visibility 10 miles    
Events      
T = Trace of Precipitation, MM = Missing Value Source: NWS Daily Summary

Daily Weather History Graph

Daily Weather History Graph

Search for Another Location

Airport:

Trip Planner

Search our weather history database for the weather conditions in past years. The results will help you decide how hot, cold, wet, or windy it might be!

Date:

Astronomy

Aug. 26, 2013 Rise Set
Actual Time 6:26 AM EDT 7:39 PM EDT
Civil Twilight 5:59 AM EDT 8:06 PM EDT
Nautical Twilight 5:26 AM EDT 8:39 PM EDT
Astronomical Twilight 4:52 AM EDT 9:13 PM EDT
Moon 10:55 PM EDT (8/26) 12:19 PM EDT (8/26)
Length of Visible Light 14h 07m
Length of Day
13h 12m
Waning Gibbous, 67% of the Moon is Illuminated
Aug 26
Waning Gibbous
Aug 28
Last Quarter
Sep 5
New
Sep 12
First Quarter
Sep 19
Full

Hourly Weather History & Observations

Time (EDT) Temp. Heat Index Dew Point Humidity Pressure Visibility Wind Dir Wind Speed Gust Speed Precip Events Conditions
12:54 AM 59.0 °F - 53.1 °F 81% 30.31 in 10.0 mi Calm Calm - N/A   Clear
1:54 AM 59.0 °F - 52.0 °F 78% 30.30 in 10.0 mi Calm Calm - N/A   Clear
2:54 AM 57.9 °F - 51.1 °F 78% 30.28 in 10.0 mi WNW 3.5 mph - N/A   Clear
3:54 AM 59.0 °F - 52.0 °F 78% 30.27 in 10.0 mi West 3.5 mph - N/A   Clear
4:54 AM 59.0 °F - 52.0 °F 78% 30.27 in 10.0 mi WNW 4.6 mph - N/A   Clear
5:54 AM 57.0 °F - 51.1 °F 81% 30.26 in 10.0 mi Calm Calm - N/A   Clear
6:54 AM 62.1 °F - 53.1 °F 72% 30.25 in 10.0 mi West 3.5 mph - N/A   Clear
7:54 AM 68.0 °F - 57.9 °F 70% 30.27 in 10.0 mi SW 3.5 mph - N/A   Clear
8:54 AM 73.0 °F - 55.9 °F 55% 30.26 in 10.0 mi SW 6.9 mph - N/A   Clear
9:54 AM 77.0 °F - 57.9 °F 52% 30.27 in 10.0 mi WNW 6.9 mph - N/A   Clear
10:54 AM 79.0 °F - 59.0 °F 50% 30.25 in 10.0 mi West 9.2 mph - N/A   Clear
11:54 AM 80.1 °F 80.7 °F 59.0 °F 48% 30.22 in 10.0 mi WSW 6.9 mph - N/A   Partly Cloudy
12:54 PM 82.0 °F 81.7 °F 57.0 °F 42% 30.20 in 10.0 mi WNW 9.2 mph - N/A   Clear
1:54 PM 82.9 °F 82.4 °F 57.0 °F 41% 30.18 in 10.0 mi West 8.1 mph - N/A   Clear
2:54 PM 82.9 °F 82.4 °F 57.0 °F 41% 30.15 in 10.0 mi West 10.4 mph - N/A   Clear
3:54 PM 84.0 °F 83.3 °F 57.0 °F 40% 30.11 in 10.0 mi SW 10.4 mph - N/A   Clear
4:54 PM 84.0 °F 83.0 °F 55.9 °F 38% 30.10 in 10.0 mi West 9.2 mph - N/A   Clear
5:54 PM 82.0 °F 81.4 °F 55.0 °F 39% 30.09 in 10.0 mi West 8.1 mph - N/A   Clear
6:54 PM 79.0 °F - 57.0 °F 47% 30.07 in 10.0 mi WSW 8.1 mph - N/A   Clear
7:54 PM 75.0 °F - 57.0 °F 53% 30.06 in 10.0 mi SW 8.1 mph - N/A   Clear
8:54 PM 73.0 °F - 57.9 °F 59% 30.06 in 10.0 mi SW 10.4 mph - N/A   Clear
9:54 PM 72.0 °F - 60.1 °F 66% 30.06 in 10.0 mi SW 8.1 mph - N/A   Clear
10:54 PM 72.0 °F - 61.0 °F 68% 30.06 in 10.0 mi SW 8.1 mph - N/A   Clear
11:54 PM 73.0 °F - 60.1 °F 64% 30.05 in 10.0 mi WSW 6.9 mph - N/A   Clear